C/2022 F1 ( ATLAS )

Japanese version
Home page
Updated on October 14, 2023

---------------------------------------------------------------------

* Profile

Discovery Date March 30, 2022
Magnitude 18.6 mag
Discoverer Asteroid Terrestrial-Impact Last Alert System (ATLAS) search program

* Orbital Elements

Epoch 2023 Sept. 13.0 TT = JDT 2460200.5
T 2022 Aug. 5.26036 TT                                  Rudenko
q   5.9749088            (2000.0)            P               Q
z  +0.0001695      Peri.  278.28694     +0.05697290     +0.98883058
 +/-0.0000033      Node   350.65109     -0.16281214     -0.12690022
e   0.9989875      Incl.   57.97526     -0.98501081     +0.07816913
>From 130 observations 2022 Mar. 30-2023 Aug. 25, mean residual 0".5.

* Magnitudes Graph

        m1 = 6.5 + 5 log d + 10.0 log r

---------------------------------------------------------------------

The orbital elements are published on M.P.E.C. 2023-Q150.
The magnitudes graphs are made with Comet for Windows.

---------------------------------------------------------------------

Copyright(C) Seiichi Yoshida (comet@aerith.net). All rights reserved.